Wind_Speed
15 13 15 14 14 15 17 19 19 18 18 18 19 20 20 19 19 19 21 21 19 21 24 21 15 18 18 15 13 12 11 12 11 9 7 7 8 10 10 8 6 4 3
13 13 15 16 16 16 17 19 21 19 18 18 18 18 18 18 17 17 17 18 18 16 16 15 14 14 16 16 12 11 10 9 9 8 9 9 11 10 7 4 1 3 3
11 12 15 17 18 18 17 19 21 20 18 17 17 17 15 15 16 15 15 15 14 13 13 11 10 10 9 9 9 8 8 9 9 9 11 14 11 8 4 2 2 3 4
10 12 13 16 17 17 17 18 19 20 18 17 16 15 13 13 12 12 12 12 12 10 11 8 8 8 6 5 5 6 7 8 8 11 13 12 9 7 4 3 5 5 7
13 12 13 14 16 16 17 16 17 18 19 18 17 15 13 11 9 9 10 9 9 10 9 7 6 5 3 3 3 3 4 6 10 12 11 8 6 5 6 7 8 8 8
14 14 14 13 15 15 15 16 17 17 17 18 18 17 14 12 10 8 7 5 5 7 8 8 6 4 3 1 1 2 4 9 12 11 9 8 8 8 9 11 11 11 11
15 15 16 15 14 14 14 14 15 16 15 15 15 16 16 15 12 10 7 5 4 4 6 7 7 6 6 5 5 6 8 10 12 12 12 12 12 11 12 12 14 15 16
10 14 17 17 16 15 14 14 14 13 12 13 13 13 12 12 12 12 10 7 5 4 3 3 4 6 7 6 7 8 11 14 14 13 13 12 12 14 17 17 18 18 18
8 9 11 14 16 17 16 15 13 12 12 11 10 10 9 10 9 9 8 8 9 7 5 4 2 3 4 5 6 8 10 11 11 12 13 15 17 20 20 21 21 21 22
4 6 8 9 10 12 14 15 14 13 12 11 10 9 8 7 7 7 7 6 6 6 4 2 2 1 2 3 5 7 9 11 13 15 17 19 21 22 22 22 23 24 22
1 2 4 6 7 8 9 10 10 11 12 11 10 9 8 7 5 4 3 3 4 5 6 6 6 7 6 7 8 9 12 14 16 19 21 22 23 23 24 24 24 22 20
4 3 3 2 2 4 6 7 7 7 7 7 6 7 6 5 4 3 3 1 1 3 4 6 7 9 10 12 13 14 16 18 19 20 22 24 25 25 26 26 25 24 23
6 6 5 5 4 3 3 3 3 3 4 4 4 5 4 3 1 0 1 2 3 4 5 6 8 10 11 13 14 17 18 20 21 23 24 24 25 26 27 27 27 27 27
8 8 8 7 6 6 5 6 7 7 7 7 7 7 6 6 6 7 6 6 7 7 8 10 11 12 14 15 17 19 21 22 23 24 25 27 27 27 27 27 28 29 29
10 12 12 11 10 10 9 9 10 11 11 11 12 12 13 13 13 13 13 14 13 14 14 14 15 16 18 18 20 22 23 24 25 26 27 29 31 31 32 32 32 31 32
13 15 16 16 15 14 14 13 13 14 14 13 14 15 16 17 18 18 18 19 19 19 20 21 21 22 22 23 23 24 25 27 29 30 31 32 34 35 35 36 37 38 38
19 18 20 19 18 16 16 15 14 15 16 18 20 22 22 23 23 23 23 22 22 23 24 26 27 28 29 29 30 31 31 32 32 33 34 35 37 37 39 40 41 42 42
23 22 22 21 19 17 15 17 19 21 24 25 25 26 24 23 22 23 25 25 26 27 28 29 30 32 33 33 34 36 37 38 40 42 42 43 43 43 43 42 44 44 45
28 26 25 25 23 21 19 20 23 27 30 28 27 24 23 24 26 26 28 28 29 31 31 32 33 35 35 36 38 37 39 42 43 45 47 49 50 49 51 53 52 51 52
32 29 29 28 26 24 23 25 27 30 32 28 26 26 28 29 29 30 31 32 32 32 33 34 35 36 36 37 38 40 40 41 42 45 47 48 51 53 55 56 57 59 58
34 33 31 29 28 27 28 31 31 32 31 30 30 31 32 31 31 32 32 33 33 33 33 34 35 37 38 39 41 42 43 44 44 46 46 48 49 51 52 54 57 60 62
35 33 32 31 29 29 33 33 32 30 30 31 32 32 31 31 30 30 30 29 29 31 32 33 34 35 36 37 38 38 38 41 41 44 46 47 48 48 50 51 53 54 58
37 35 34 33 32 34 32 33 33 31 31 31 31 30 28 28 28 28 30 32 32 31 31 32 31 31 33 35 38 40 41 41 41 41 42 45 46 49 50 51 52 52 51
37 37 37 37 36 34 33 32 32 31 30 29 29 28 28 28 30 31 32 32 31 30 31 31 32 33 36 38 39 40 43 44 43 41 43 48 49 50 51 51 52 54 55
38 38 38 38 37 36 35 33 32 30 29 28 27 28 28 30 32 33 32 30 29 29 30 31 33 35 37 39 40 41 43 45 46 46 44 45 46 49 51 50 50 54 57
42 42 42 42 38 37 35 33 31 30 29 28 28 28 30 32 32 31 30 29 29 30 32 34 36 37 38 39 39 41 44 45 46 46 46 45 45 47 47 51 57 58 58
Wind_Direction
65 63 64 73 87 93 99 100 99 92 88 87 83 83 80 75 71 70 71 76 68 101 143 149 129 180 173 171 163 164 174 174 185 182 181 180 168 163 167 169 170 182 212
71 73 71 74 81 88 87 88 90 87 83 82 84 83 83 82 79 75 75 78 82 86 82 95 111 110 175 148 154 168 181 185 195 182 173 168 161 164 164 159 225 271 260
87 79 80 80 81 84 87 82 85 85 79 74 77 82 80 85 86 83 78 77 80 88 96 101 104 109 120 147 165 174 183 182 188 187 172 165 165 159 149 179 254 267 260
104 94 86 84 84 83 88 85 79 77 72 68 66 68 74 82 90 95 89 91 92 88 90 94 102 103 118 138 153 176 184 189 187 175 163 163 163 167 187 223 242 243 254
99 104 94 87 85 84 84 86 81 76 72 69 65 67 71 78 89 90 90 90 95 103 112 104 99 101 119 151 159 171 194 191 183 168 165 170 181 206 236 250 251 249 245
90 96 97 96 90 87 86 86 84 77 73 69 68 67 69 69 73 84 93 101 114 122 125 133 130 133 146 170 231 228 212 194 179 174 180 197 218 237 256 268 262 256 256
79 87 91 93 94 92 87 85 85 85 81 72 64 63 63 66 72 74 78 94 118 140 161 161 165 171 178 189 195 201 206 197 189 193 204 217 231 249 267 277 272 272 272
74 78 81 82 84 86 87 84 82 82 79 78 76 70 63 58 56 62 72 80 87 101 124 165 201 208 210 203 206 200 195 196 201 211 225 238 254 266 271 275 268 269 275
69 69 80 83 82 80 78 77 77 79 79 77 76 75 69 59 53 49 46 50 58 71 90 109 159 187 201 206 208 201 200 208 222 237 248 255 261 265 273 278 275 278 282
61 62 64 72 79 83 82 80 75 70 66 68 75 76 74 65 51 38 31 26 21 17 22 48 82 104 155 187 200 211 222 233 242 249 255 263 272 279 282 283 283 287 286
318 34 51 58 66 71 73 77 80 80 77 73 70 70 74 85 90 83 48 15 358 349 340 334 327 313 289 264 254 256 260 264 267 271 273 277 281 283 285 287 288 285 279
270 304 325 1 34 52 55 48 47 51 57 63 73 85 90 92 93 104 128 133 306 311 308 305 303 299 296 293 290 285 278 274 273 274 279 285 287 288 289 290 290 287 282
257 270 277 290 304 331 354 353 357 1 10 9 14 13 11 9 20 204 225 221 228 232 247 257 263 266 268 272 276 278 281 286 290 292 290 288 288 288 289 289 288 284 282
264 269 266 270 282 293 296 296 305 309 311 311 312 310 310 306 306 303 299 291 279 267 260 256 254 255 256 258 261 265 270 274 278 283 287 290 290 290 287 286 285 283 281
270 273 274 273 274 278 281 287 291 292 294 294 292 293 296 296 293 289 290 289 289 289 285 281 276 273 269 266 264 265 266 267 269 271 273 275 278 280 281 281 279 275 273
278 280 277 277 279 282 283 286 287 289 289 289 290 290 290 288 285 282 279 279 279 280 279 280 282 281 279 278 276 275 276 278 277 274 272 271 273 273 273 276 277 278 278
279 281 278 278 278 279 285 289 290 289 291 292 293 292 290 289 286 284 281 280 280 279 280 280 280 280 281 281 281 281 279 277 275 275 276 277 275 275 277 277 276 275 275
275 278 278 277 273 274 278 288 296 301 302 295 290 288 286 286 284 284 284 284 286 288 286 286 286 286 286 288 287 287 287 286 284 283 282 281 279 278 277 276 277 277 276
271 275 277 275 274 271 272 284 289 293 298 287 285 284 283 283 282 286 289 291 291 292 292 292 292 292 293 292 291 290 289 286 285 284 285 284 282 279 280 278 276 275 275
268 270 272 275 274 271 271 284 290 291 292 285 283 282 284 287 288 290 290 291 292 293 293 295 295 295 297 297 297 295 294 292 290 289 287 285 283 282 280 279 278 276 275
260 264 267 268 270 271 277 285 290 288 283 281 282 283 283 284 286 288 289 288 289 291 294 295 296 295 295 294 293 293 291 291 292 290 290 287 288 285 285 281 278 275 273
253 257 261 265 264 266 276 282 282 281 278 278 279 278 279 284 284 283 286 288 290 290 291 292 292 294 295 295 295 296 298 299 299 297 294 292 291 289 287 286 284 281 277
253 256 259 260 263 271 274 280 276 276 275 274 275 278 281 281 284 289 292 294 295 296 295 296 297 301 304 307 308 308 307 307 307 304 300 297 296 294 293 292 290 289 287
253 255 257 260 262 266 275 270 269 270 270 272 276 279 280 287 290 291 292 291 291 292 296 300 301 303 306 308 308 308 308 306 304 302 300 298 297 296 296 294 291 289 287
253 254 256 259 265 272 270 268 270 270 271 274 275 279 285 287 287 286 283 284 289 296 300 300 301 305 308 309 310 312 313 311 309 307 305 302 302 299 296 294 293 292 289
251 255 259 264 266 265 262 263 265 267 271 274 277 280 283 283 281 280 282 286 292 298 301 300 301 304 307 307 309 311 310 310 310 309 307 305 303 299 293 293 294 291 291
Height
5869 5869 5867 5866 5865 5864 5862 5860 5858 5857 5855 5855 5853 5853 5852 5852 5851 5852 5852 5853 5853 5852 5855 5857 5858 5860 5862 5864 5866 5869 5870 5871 5873 5873 5874 5874 5876 5877 5877 5878 5878 5878 5879
5872 5870 5869 5868 5867 5866 5864 5862 5860 5858 5857 5857 5857 5857 5857 5856 5855 5856 5857 5857 5857 5858 5858 5860 5862 5861 5862 5866 5868 5869 5870 5871 5873 5873 5874 5875 5877 5878 5878 5879 5879 5880 5880
5874 5873 5871 5869 5868 5867 5866 5864 5862 5861 5860 5860 5859 5859 5859 5859 5859 5859 5859 5860 5861 5862 5863 5864 5865 5865 5867 5869 5870 5871 5872 5873 5873 5874 5874 5876 5878 5878 5878 5879 5879 5879 5879
5875 5874 5874 5872 5870 5869 5868 5866 5864 5863 5862 5862 5861 5861 5861 5862 5863 5864 5863 5863 5864 5865 5866 5868 5868 5868 5870 5872 5872 5873 5873 5874 5874 5875 5876 5877 5878 5878 5878 5878 5878 5878 5878
5877 5876 5875 5874 5873 5871 5870 5868 5867 5865 5865 5865 5864 5864 5865 5864 5865 5865 5865 5866 5866 5867 5868 5869 5870 5871 5871 5872 5873 5874 5875 5875 5877 5877 5878 5879 5879 5879 5879 5878 5878 5877 5876
5880 5878 5876 5875 5874 5874 5873 5872 5870 5868 5868 5868 5868 5867 5866 5866 5866 5867 5867 5868 5868 5868 5869 5870 5872 5872 5873 5873 5874 5874 5875 5877 5877 5878 5879 5879 5880 5880 5879 5879 5878 5876 5875
5881 5880 5878 5878 5876 5875 5875 5875 5873 5872 5871 5870 5869 5869 5869 5869 5869 5869 5870 5870 5870 5871 5871 5872 5872 5873 5873 5874 5874 5875 5876 5877 5878 5878 5878 5878 5879 5879 5878 5877 5877 5875 5874
5883 5882 5880 5879 5879 5878 5876 5875 5875 5875 5875 5874 5874 5873 5872 5871 5871 5872 5872 5872 5872 5871 5872 5873 5874 5874 5874 5874 5875 5875 5875 5876 5877 5878 5878 5878 5878 5877 5877 5876 5875 5874 5873
5884 5884 5882 5881 5880 5879 5879 5878 5877 5876 5876 5876 5876 5876 5876 5876 5875 5875 5875 5874 5873 5874 5874 5874 5875 5875 5875 5875 5876 5877 5877 5878 5878 5879 5879 5878 5877 5877 5875 5874 5873 5872 5870
5884 5884 5883 5882 5881 5880 5880 5879 5879 5879 5879 5879 5878 5878 5878 5879 5879 5878 5878 5878 5878 5877 5877 5877 5877 5878 5877 5877 5877 5878 5878 5878 5878 5878 5877 5877 5876 5875 5873 5872 5871 5869 5868
5884 5884 5883 5883 5882 5881 5881 5881 5881 5881 5881 5880 5880 5880 5879 5879 5879 5879 5879 5878 5878 5878 5879 5879 5879 5879 5879 5879 5878 5878 5878 5878 5878 5877 5876 5875 5874 5873 5871 5870 5868 5866 5865
5882 5883 5883 5882 5882 5882 5882 5882 5882 5881 5881 5880 5880 5879 5879 5879 5879 5878 5878 5878 5878 5878 5878 5878 5879 5879 5879 5878 5878 5878 5877 5877 5876 5875 5874 5873 5871 5870 5868 5866 5865 5864 5863
5881 5881 5881 5882 5881 5881 5881 5882 5881 5881 5880 5880 5879 5879 5879 5879 5879 5878 5878 5877 5877 5876 5876 5875 5875 5875 5875 5875 5874 5874 5873 5873 5872 5871 5870 5869 5867 5865 5863 5862 5860 5859 5858
5879 5879 5880 5880 5880 5880 5880 5880 5880 5880 5879 5879 5879 5878 5878 5877 5877 5877 5876 5876 5876 5875 5875 5874 5873 5872 5871 5871 5870 5870 5869 5868 5867 5866 5864 5862 5861 5859 5858 5857 5856 5854 5853
5875 5877 5877 5878 5878 5878 5878 5878 5878 5878 5877 5877 5876 5876 5876 5875 5875 5874 5874 5873 5873 5872 5872 5872 5871 5870 5869 5869 5867 5866 5865 5864 5862 5860 5858 5856 5854 5853 5852 5852 5850 5848 5846
5872 5873 5874 5874 5874 5875 5875 5875 5875 5875 5875 5874 5874 5873 5873 5872 5871 5870 5869 5869 5868 5867 5866 5866 5866 5865 5864 5864 5863 5862 5861 5859 5858 5856 5854 5852 5850 5847 5845 5844 5842 5841 5840
5868 5869 5870 5870 5871 5871 5871 5871 5871 5872 5872 5871 5870 5869 5869 5867 5866 5865 5864 5864 5863 5862 5861 5860 5859 5859 5858 5857 5857 5855 5854 5852 5850 5848 5846 5845 5843 5842 5839 5837 5835 5833 5831
5863 5864 5865 5866 5867 5867 5866 5866 5867 5866 5866 5865 5865 5864 5863 5862 5860 5859 5859 5858 5857 5856 5855 5854 5853 5852 5852 5851 5849 5848 5847 5845 5842 5840 5839 5837 5835 5833 5830 5829 5827 5824 5823
5857 5858 5860 5861 5862 5862 5861 5861 5862 5862 5861 5860 5859 5857 5857 5856 5855 5854 5854 5853 5852 5850 5849 5848 5846 5845 5844 5842 5841 5839 5838 5835 5833 5831 5829 5827 5825 5822 5820 5817 5817 5815 5811
5851 5852 5854 5855 5855 5855 5855 5856 5855 5854 5853 5853 5852 5851 5850 5849 5848 5847 5847 5846 5845 5843 5842 5840 5839 5837 5836 5834 5832 5831 5828 5826 5823 5820 5818 5816 5812 5811 5808 5805 5803 5801 5800
5845 5847 5848 5849 5849 5849 5849 5849 5848 5847 5846 5845 5845 5844 5844 5843 5842 5842 5841 5840 5839 5837 5834 5832 5831 5830 5829 5827 5826 5824 5821 5817 5815 5810 5808 5804 5801 5796 5794 5790 5787 5785 5784
5839 5840 5841 5842 5843 5844 5843 5842 5841 5840 5840 5839 5839 5839 5838 5837 5837 5836 5835 5834 5832 5831 5828 5826 5824 5822 5820 5819 5816 5815 5813 5807 5806 5800 5796 5793 5790 5785 5781 5776 5773 5770 5767
5832 5833 5834 5835 5836 5836 5836 5835 5834 5834 5833 5833 5833 5832 5832 5831 5830 5828 5827 5826 5824 5822 5821 5819 5816 5814 5812 5810 5807 5805 5802 5800 5795 5790 5786 5781 5777 5773 5769 5766 5761 5757 5753
5823 5825 5826 5827 5828 5828 5828 5827 5827 5827 5827 5826 5826 5825 5825 5823 5822 5821 5820 5819 5817 5816 5814 5812 5810 5807 5804 5801 5799 5795 5792 5790 5788 5787 5780 5773 5769 5763 5758 5753 5749 5744 5740
5814 5816 5817 5819 5820 5820 5820 5819 5819 5819 5819 5819 5819 5819 5817 5817 5816 5815 5814 5813 5811 5810 5808 5805 5803 5800 5797 5793 5789 5786 5782 5777 5774 5772 5771 5766 5759 5752 5747 5743 5737 5731 5726
5804 5807 5809 5810 5811 5812 5812 5812 5812 5812 5812 5812 5811 5811 5811 5810 5810 5809 5808 5806 5805 5803 5800 5798 5795 5792 5789 5785 5781 5777 5772 5768 5763 5760 5757 5753 5750 5745 5738 5733 5725 5719 5714